K5RG-3 Weather Reports


time (UTC)temp
F
wind
direction
speed
knots
gust
knots
rain 1hr
in
rain 24hr
in
rain mn
in
humidity
%
barometer
mb
20260831191512 90 10 0.9 9.6 0.00 0.00 0.00 72 1013.7
20260831190010 93 15 0.9 5.2 0.00 0.00 0.00 65 1013.9
20260831184513 92 54 0.9 4.3 0.00 0.00 0.00 66 1013.9
20260831183107 92 335 0.0 3.5 0.00 0.00 0.00 67 1014.0
20260831181557 91 134 0.9 3.5 0.00 0.00 0.00 68 1014.2
20260831180053 90 112 0.9 5.2 0.00 0.00 0.00 71 1014.5
20260831174602 90 95 0.9 6.1 0.00 0.00 0.00 72 1014.5
20260831173058 89 71 0.9 4.3 0.00 0.00 0.00 75 1014.7
20260831171545 88 192 0.0 3.5 0.00 0.00 0.00 77 1014.8
20260831170044 86 279 0.9 4.3 0.00 0.00 0.00 77 1015.0
20260831164542 88 154 0.9 7.0 0.00 0.00 0.00 77 1015.0
20260831163049 87 58 4.3 8.7 0.00 0.00 0.00 79 1014.9
20260831161541 88 51 1.7 7.0 0.00 0.00 0.00 78 1015.0
20260831160045 88 81 0.9 7.8 0.00 0.00 0.00 76 1015.0
20260831154537 87 81 1.7 6.1 0.00 0.00 0.00 81 1014.8
20260831153036 86 61 1.7 7.0 0.00 0.00 0.00 81 1014.9
20260831151534 86 351 0.0 4.3 0.00 0.00 0.00 81 1014.9
20260831150033 86 48 1.7 4.3 0.00 0.00 0.00 82 1014.9
20260831144542 84 33 0.9 3.5 0.00 0.00 0.00 84 1014.8
20260831143033 83 331 0.0 2.6 0.00 0.00 0.00 85 1014.6
20260831141522 82 344 0.0 3.5 0.00 0.00 0.00 87 1014.7
20260831140018 81 55 0.0 4.3 0.00 0.00 0.00 90 1014.7
20260831134514 80 340 0.0 2.6 0.00 0.00 0.00 91 1014.4
20260831133012 80 313 0.0 0.0 0.00 0.00 0.00 91 1014.2
20260831131510 79 313 0.0 0.0 0.00 0.00 0.00 91 1014.2
20260831130008 79 313 0.0 0.0 0.00 0.00 0.00 91 1013.9
20260831124510 79 313 0.0 0.0 0.00 0.00 0.00 91 1013.6
20260831123006 79 313 0.0 0.0 0.00 0.00 0.00 91 1013.5
20260831121507 79 313 0.9 2.6 0.00 0.00 0.00 91 1013.3
20260831120013 79 313 0.0 1.7 0.00 0.00 0.00 91 1013.4
20260831114504 79 313 0.0 0.0 0.00 0.00 0.00 91 1013.1
20260831113004 79 306 0.0 2.6 0.00 0.00 0.00 91 1013.0
20260831111503 79 308 0.9 1.7 0.00 0.00 0.00 91 1013.0
20260831110003 79 311 0.9 2.6 0.00 0.00 0.00 91 1012.9
20260831104504 79 282 0.9 2.6 0.00 0.00 0.00 92 1012.9
20260831103001 79 235 0.0 0.0 0.00 0.00 0.00 92 1013.1
20260831101601 79 235 0.0 1.7 0.00 0.00 0.00 91 1013.0
20260831100106 79 206 0.0 0.0 0.00 0.00 0.00 91 1013.1
20260831094600 79 206 0.0 0.0 0.00 0.00 0.00 91 1013.1
20260831093100 79 206 0.0 0.0 0.00 0.00 0.00 91 1013.0
20260831091557 79 206 0.0 0.0 0.00 0.00 0.00 90 1012.9
20260831090058 79 206 0.0 0.0 0.00 0.00 0.00 90 1012.8
20260831084603 79 206 0.0 0.0 0.00 0.00 0.00 90 1012.9
20260831083055 79 206 0.0 0.0 0.00 0.00 0.00 89 1013.0
20260831081625 80 206 0.0 0.0 0.00 0.00 0.00 89 1013.1
20260831080051 80 206 0.0 0.0 0.00 0.00 0.00 88 1013.3
20260831074549 80 206 0.0 0.0 0.00 0.00 0.00 88 1013.3
20260831073122 81 206 0.0 0.0 0.00 0.00 0.00 88 1013.3
20260831071546 81 206 0.0 0.0 0.00 0.00 0.00 88 1013.2
20260831070046 81 206 0.0 0.0 0.00 0.00 0.00 88 1013.3
20260831064552 81 206 0.0 0.0 0.00 0.00 0.00 88 1013.4
20260831063043 81 163 0.0 0.0 0.00 0.00 0.00 87 1013.5
20260831061542 81 163 0.0 0.0 0.00 0.00 0.00 87 1013.6
20260831060057 81 163 0.0 0.0 0.00 0.00 0.00 87 1013.6
20260831054541 81 163 0.0 0.0 0.00 0.00 0.00 86 1013.5
20260831053038 81 163 0.0 0.0 0.00 0.00 0.00 86 1013.5
20260831051541 81 90 0.0 0.0 0.00 0.00 0.00 85 1013.4
20260831050044 81 89 0.0 0.0 0.00 0.00 0.00 85 1013.4
20260831044536 82 89 0.0 0.0 0.00 0.00 0.00 84 1013.4
20260831043036 82 89 0.0 0.0 0.00 0.00 0.00 83 1013.3
20260831041545 82 89 0.0 0.0 0.00 0.00 0.00 83 1013.3
20260831040047 83 89 0.0 0.0 0.00 0.00 0.00 82 1013.2
20260831034538 83 89 0.0 0.0 0.00 0.00 0.00 81 1013.1
20260831033033 84 89 0.0 0.0 0.00 0.00 0.00 80 1013.0
20260831031533 84 175 0.0 0.0 0.00 0.00 0.00 80 1012.9
20260831030044 84 175 0.0 0.0 0.00 0.00 0.00 80 1012.9
20260831024533 84 156 0.0 0.9 0.00 0.00 0.00 79 1012.7
20260831023033 85 224 0.0 0.9 0.00 0.00 0.00 78 1012.5
20260831021534 85 224 0.0 0.9 0.00 0.00 0.00 78 1012.3
20260831020031 86 224 0.0 0.9 0.00 0.00 0.00 77 1012.1
20260831014535 86 187 0.0 1.7 0.00 0.00 0.00 76 1012.0
20260831013032 86 192 0.0 4.3 0.00 0.00 0.00 75 1012.1
20260831011537 87 158 0.0 0.0 0.00 0.00 0.00 74 1011.9
20260831010029 87 158 0.0 1.7 0.00 0.00 0.00 73 1011.9
20260831004529 88 182 0.0 0.9 0.00 0.00 0.00 71 1011.9
20260831003027 89 129 0.0 1.7 0.00 0.00 0.00 70 1011.8
20260831001533 90 156 0.0 1.7 0.00 0.00 0.00 69 1011.8
20260831000028 91 165 0.0 1.7 0.00 0.00 0.00 67 1011.9
20260830234527 91 151 0.0 1.7 0.00 0.00 0.00 65 1011.8
20260830233033 92 165 0.0 2.6 0.00 0.00 0.00 64 1011.7
20260830231526 92 138 0.9 1.7 0.00 0.00 0.00 63 1011.7
20260830230027 92 129 0.0 1.7 0.00 0.00 0.00 61 1011.8
20260830224525 93 162 0.9 2.6 0.00 0.00 0.00 61 1011.8
20260830223026 93 112 0.0 2.6 0.00 0.00 0.00 60 1011.7
20260830221525 94 151 0.9 3.5 0.00 0.00 0.00 59 1011.6
20260830220039 94 156 0.0 2.6 0.00 0.00 0.00 63 1011.6
20260830214522 94 131 0.9 6.1 0.00 0.00 0.00 65 1011.7
20260830213025 94 123 0.9 2.6 0.00 0.00 0.00 64 1011.8
20260830211522 94 122 0.0 4.3 0.00 0.00 0.00 66 1011.9
20260830210021 94 95 1.7 7.8 0.00 0.00 0.00 65 1012.1
20260830204511 94 104 2.6 7.8 0.00 0.00 0.00 65 1012.3
20260830203007 94 140 0.0 7.0 0.00 0.00 0.00 65 1012.4
20260830201503 94 107 2.6 7.0 0.00 0.00 0.00 66 1012.6
20260830200103 94 99 2.6 13.0 0.00 0.00 0.00 67 1012.7
20260830194555 93 71 4.3 11.3 0.00 0.00 0.00 67 1013.0
20260830193052 93 65 3.5 12.2 0.00 0.00 0.00 69 1013.2